User: anonymous   Login
Location: Melbourne
(37.8170°S, 144.9670°E)
Time: 06:57:25
(UTC+10:00)
Language:

ADEOS Rocket - Orbit

View from above orbital plane
View from above orbital plane
View from above satellite
View from above satellite

Ground track
Ground track

The orbit data is extracted from the following two-line orbital elements,

1 24279U 96046C   15240.93450624 +.00000002 +00000-0 +45563-4 0  9993
2 24279 098.6958 257.9131 0300447 168.0818 255.2470 13.47031836935355
Epoch (UTC): 28 August 2015 22:25:41
Eccentricity: 0.0300447
inclination: 98.6958°
perigee height: 859 km
apogee height: 1307 km
right ascension of ascending node: 257.9131°
argument of perigee: 168.0818°
revolutions per day: 13.47031836
mean anomaly at epoch: 255.2470°
orbit number at epoch: 93535

The dashed part of the orbit path shows where the satellite is in the earth's shadow,  

DLR